Location: Unspecified
(0.0000°N, 0.0000°E)
Time: 17:05:44
(UTC+00:00)

Hubble Space Telescope - Pass Details

Date: 22 August 2017
Orbit: 537 x 541 km, 28.5° (Epoch: 13 December)

Event Time Altitude Azimuth Distance (km) Brightness Sun altitude
Rises 19:16:55 0° 213° (SSW) 2,684 4.6 -18.1°
Reaches altitude 10° 19:19:56 10° 190° (S) 1,792 3.4 -18.9°
Enters shadow 19:21:14 14° 173° (S) 1,546 2.9 -19.2°
